Home   Weather   Dresden   Past weeks

Flag for Germany Past Weather in Dresden, Saxony, Germany — Yesterday and Last 2 Weeks

Now
66 °F

Scattered clouds.


Feels Like: 66 °F
Forecast: 50 / 71 °F
Wind: 3 mph from North

Location: Dresden-Klotzsche

Current Time: Sep 26, 2016 at 4:03:41 PM

Latest Report: Sep 26, 2016 at 3:20 PM


Visibility: N/A

Pressure: 30.18 "Hg

Humidity: 56%

Dew Point: 50 °F

Location of DresdenLocation

Past Weather in Dresden — Graph

°F

Dresden Temperature Yesterday

Maximum temperature yesterday: 70 °F (at 2:20 PM)
Minimum temperature yesterday: 48 °F (at 3:50 AM)
Average temperature yesterday: 58 °F

High & Low Weather Summary for the Past Weeks

 TemperatureHumidityPressure
High86 °F (Sep 12, 1:50 PM)100% (Sep 12, 4:50 AM)30.33 "Hg (Sep 12, 4:50 AM)
Low43 °F (Sep 22, 5:20 AM)29% (Sep 12, 1:50 PM)29.83 "Hg (Sep 17, 3:50 AM)
Average62 °F73%30.07 "Hg
* Reported Sep 11 2:20 PM — Sep 26 2:50 PM, Dresden, Weather by CustomWeather, © 2016

Note: Actual official high and low records may vary slightly from our data, if they occured in-between our weather recording intervals... More about our weather records

Advertising

Dresden Weather History for the Previous 24 Hours

Scroll right to see more
 ConditionsComfort  
Time TempWeatherWind HumidityBarometerVisibility
2:50 PM
Mon, Sep 26
66 °FScattered clouds.3 mph60%30.18 "HgN/A
2:20 PM66 °FScattered clouds.5 mph60%30.15 "HgN/A
1:50 PM66 °FScattered clouds.3 mph60%30.18 "HgN/A
1:20 PM64 °FSunny.1 mph64%30.18 "Hg10 mi
12:50 PM64 °FSunny.2 mph60%30.18 "Hg10 mi
12:20 PM63 °FSunny.2 mph68%30.18 "Hg10 mi
11:50 AM63 °FSunny.5 mph68%30.18 "Hg10 mi
11:20 AM61 °FSunny.6 mph68%30.18 "Hg10 mi
10:50 AM61 °FSunny.7 mph72%30.18 "Hg10 mi
10:20 AM59 °FPassing clouds.7 mph68%30.15 "HgN/A
9:50 AM55 °FSunny.6 mph82%30.18 "Hg10 mi
9:20 AM54 °FSunny.7 mph82%30.15 "Hg10 mi
8:50 AM52 °FSunny.1 mph88%30.15 "Hg10 mi
8:20 AM50 °FSunny.5 mph88%30.15 "Hg10 mi
7:50 AM48 °FSunny.7 mph94%30.15 "Hg10 mi
7:20 AM48 °FPassing clouds.6 mph94%30.12 "HgN/A
6:50 AM48 °FClear.5 mph94%30.12 "Hg10 mi
6:20 AM48 °FClear.1 mph94%30.12 "Hg10 mi
5:50 AM48 °FPassing clouds.3 mph94%30.12 "HgN/A
5:20 AM48 °FClear.2 mph94%30.12 "Hg10 mi
4:50 AM48 °FClear.2 mph100%30.12 "Hg10 mi
4:20 AM48 °FClear.3 mph94%30.12 "Hg10 mi
3:50 AM50 °FClear.3 mph94%30.12 "Hg10 mi
3:20 AM52 °FClear.5 mph88%30.12 "Hg10 mi
2:50 AM50 °FClear.5 mph94%30.12 "Hg10 mi
2:20 AM50 °FClear.1 mph100%30.12 "Hg10 mi
1:50 AM50 °FClear.3 mph100%30.12 "Hg10 mi
1:20 AM52 °FClear.2 mph94%30.12 "Hg10 mi
12:50 AM50 °FPassing clouds.3 mph100%30.15 "HgN/A
12:20 AM50 °FClear.6 mph94%30.15 "Hg10 mi
11:50 PM
Sun, Sep 25
54 °FClear.2 mph82%30.15 "Hg10 mi
11:20 PM54 °FClear.5 mph88%30.15 "Hg10 mi
10:50 PM54 °FClear.3 mph88%30.15 "Hg10 mi
10:20 PM57 °FClear.5 mph77%30.15 "Hg10 mi
9:50 PM55 °FClear.2 mph82%30.15 "Hg10 mi
9:20 PM57 °FClear.5 mph77%30.12 "Hg10 mi
8:50 PM57 °FClear.6 mph77%30.12 "Hg10 mi
8:20 PM61 °FPassing clouds.5 mph59%30.12 "HgN/A
7:50 PM61 °FClear.6 mph63%30.12 "Hg10 mi
7:20 PM63 °FClear.3 mph59%30.12 "Hg10 mi
6:50 PM64 °FPassing clouds.3 mph56%30.12 "HgN/A
6:20 PM66 °FSunny.5 mph49%30.12 "Hg10 mi
5:50 PM68 °FPassing clouds.6 mph46%30.12 "HgN/A
5:20 PM68 °FPassing clouds.5 mph46%30.12 "HgN/A
4:50 PM70 °FPassing clouds.6 mph43%30.12 "HgN/A
4:20 PM70 °FPassing clouds.7 mph40%30.12 "HgN/A
Weather by CustomWeather, © 2016

See weather overviewHow to use our weather pages